User: anonymous   Login
Location: ????????
(54.9045°N, 39.1041°E)
Time: 01:40:23
(UTC+00:00)
Language:

Cosmos 2056 Rocket - Orbit

View from above orbital plane
View from above orbital plane
View from above satellite
View from above satellite

Ground track
Ground track

The orbit data is extracted from the following two-line orbital elements,

1 20433U 90004B   24167.61298872  .00000475  00000-0  16814-3 0  9997
2 20433  74.0368 343.3789 0040991 210.2536 215.5298 14.36795790801788
Epoch (UTC): 15 June 2024 14:42:42
Eccentricity: 0.0040991
inclination: 74.0368°
perigee height: 740 km
apogee height: 798 km
right ascension of ascending node: 343.3789°
argument of perigee: 210.2536°
revolutions per day: 14.36795790
mean anomaly at epoch: 215.5298°
orbit number at epoch: 80178

The dashed part of the orbit path shows where the satellite is in the earth's shadow,  

DLR